Flag for Japan Weather past 2 weeks in Hamamatsu, Japan

Now
73 °F

Light rain. Cloudy.


Feels Like: 70 °F
Forecast: 70 / 80 °F
Wind: 7 mph from North

Location: Omaezaki

Current Time: Aug 28, 2014 at 10:18:24 AM

Latest Report: Aug 28, 2014 at 9:00 AM


Visibility: 13 mi

Pressure: 29.97 "Hg

Humidity: 93%

Dew point: 71 °F

Location of HamamatsuLocation

Historic Weather in Hamamatsu — Graph

°F

Hamamatsu temperature yesterday

Maximum temperature yesterday: 80 °F (at 2:00 PM)
Minimum temperature yesterday: 74 °F (at 11:00 PM)
Average temperature yesterday: 76 °F

Past Weeks' High & Low Weather Summary

 TemperatureHumidityPressure
High85 °F (Aug 19, 10:00 AM)100% (Aug 13, 5:00 PM)30.03 "Hg (Aug 13, 5:00 PM)
Low73 °F (Aug 28, 5:00 AM)69% (Aug 24, 12:00 PM)29.71 "Hg (Aug 26, 4:00 PM)
Average79 °F94%29.90 "Hg
* Reported Aug 13 9:00 AM — Aug 28 9:00 AM, Hamamatsu, Weather by CustomWeather, © 2014

Note: Actual official high and low records may vary slightly from our data, if they occured in-between our weather recording intervals... More about our weather records

Advertising

Hamamatsu weather history for previous 24 hours

 ConditionsComfort  
Time TempWeatherWind HumidityBarometerVisibility
9:00 AM
Aug 28
73 °FLight rain. Cloudy.7 mph93%29.97 "Hg12 mi
8:00 AM73 °FLight rain. Cloudy.6 mph89%29.96 "Hg12 mi
7:00 AM73 °FLight rain. Cloudy.7 mph90%29.96 "Hg12 mi
6:00 AM73 °FLight rain. Cloudy.8 mph90%29.95 "Hg12 mi
5:00 AM73 °FLight rain. Cloudy.10 mph88%29.93 "Hg12 mi
4:00 AM73 °FMild.8 mph86%29.93 "Hg12 mi
2:00 AM73 °FMild.10 mph85%29.93 "Hg12 mi
1:00 AM74 °FMild.12 mph83%29.94 "Hg12 mi
12:00 AM74 °FMild.10 mph83%29.94 "Hg12 mi
11:00 PM
Aug 27
74 °FMild.13 mph82%29.94 "Hg12 mi
10:00 PM75 °FMild.12 mph84%29.96 "Hg12 mi
9:00 PM75 °FMild.13 mph82%29.96 "Hg12 mi
8:00 PM75 °FMild.10 mph80%29.94 "Hg12 mi
5:00 PM76 °FMild.9 mph77%29.91 "Hg12 mi
4:00 PM77 °FWarm.8 mph74%29.91 "Hg12 mi
3:00 PM77 °FWarm.8 mph75%29.90 "Hg12 mi
2:00 PM80 °FWarm.10 mph71%29.90 "Hg12 mi
1:00 PM78 °FWarm.9 mph73%29.91 "Hg12 mi
12:00 PM77 °FWarm.7 mph76%29.91 "Hg12 mi
11:00 AM77 °FWarm.9 mph77%29.92 "Hg12 mi
10:00 AM76 °FMild.14 mph78%29.91 "Hg12 mi
Weather by CustomWeather, © 2014

See weather overviewHow to use our weather pages